contact:dominique.lefevre@mio.osupytheas.fr, maurice.libes@osupytheas.fr, didier.mallarino@osupytheas.fr
Project:EMSO http://www.emso-fr.org/EMSO-France
Depth: 2436.0 m
Title:EMSO Ligure Ouest : Data MII capteur MICROCAT
DateTime_Computer,Latitude,Longitude,Temperature,Conductivity,Pressure,DateTime_Instrument
DateTime_Computer,Latitude,Longitude,degC,S m-1,dbar,DateTime_Instrument
2022-07-01T00:00:31Z,42.805,6.029,13.3039,4.60069,2470.544,2022-7-01T02:02:16Z
2022-07-01T00:03:34Z,42.805,6.029,13.3030,4.60055,2470.6,2022-7-01T02:05:19Z
2022-07-01T00:06:37Z,42.805,6.029,13.3045,4.60071,2470.53,2022-7-01T02:08:22Z
2022-07-01T00:09:41Z,42.805,6.029,13.3048,4.60085,2470.53,2022-7-01T02:11:25Z
2022-07-01T00:12:44Z,42.805,6.029,13.3052,4.60099,2470.53,2022-7-01T02:14:29Z
2022-07-01T00:15:47Z,42.805,6.029,13.3037,4.60092,2470.553,2022-7-01T02:17:32Z
2022-07-01T00:18:50Z,42.805,6.029,13.3035,4.60114,2470.544,2022-7-01T02:20:35Z
2022-07-01T00:21:53Z,42.805,6.029,13.3043,4.60081,2470.553,2022-7-01T02:23:38Z
2022-07-01T00:24:56Z,42.805,6.029,13.3036,4.60126,2470.544,2022-7-01T02:26:41Z
2022-07-01T00:27:59Z,42.805,6.029,13.3025,4.60112,2470.567,2022-7-01T02:29:44Z
2022-07-01T00:31:02Z,42.805,6.029,13.3027,4.60127,2470.544,2022-7-01T02:32:47Z
2022-07-01T00:34:06Z,42.805,6.029,13.3027,4.60127,2470.567,2022-7-01T02:35:50Z
2022-07-01T00:37:09Z,42.805,6.029,13.3041,4.60117,2470.567,2022-7-01T02:38:54Z
2022-07-01T00:40:12Z,42.805,6.029,13.3029,4.60126,2470.53,2022-7-01T02:41:57Z
2022-07-01T00:43:15Z,42.805,6.029,13.3035,4.60117,2470.544,2022-7-01T02:45:00Z
2022-07-01T00:46:18Z,42.805,6.029,13.3018,4.60119,2470.507,2022-7-01T02:48:03Z
2022-07-01T00:49:21Z,42.805,6.029,13.3025,4.60119,2470.507,2022-7-01T02:51:06Z
2022-07-01T00:52:24Z,42.805,6.029,13.3041,4.60135,2470.507,2022-7-01T02:54:09Z
2022-07-01T00:55:27Z,42.805,6.029,13.3054,4.60101,2470.52,2022-7-01T02:57:12Z
2022-07-01T00:58:30Z,42.805,6.029,13.3032,4.60119,2470.544,2022-7-01T03:00:15Z
2022-07-01T01:01:33Z,42.805,6.029,13.3029,4.60129,2470.52,2022-7-01T03:03:18Z
2022-07-01T01:04:37Z,42.805,6.029,13.3036,4.60144,2470.544,2022-7-01T03:06:22Z
2022-07-01T01:07:40Z,42.805,6.029,13.3042,4.60084,2470.53,2022-7-01T03:09:25Z
2022-07-01T01:10:43Z,42.805,6.029,13.3042,4.60086,2470.577,2022-7-01T03:12:28Z
2022-07-01T01:13:46Z,42.805,6.029,13.3046,4.60115,2470.544,2022-7-01T03:15:31Z
2022-07-01T01:16:49Z,42.805,6.029,13.3052,4.60096,2470.544,2022-7-01T03:18:34Z
2022-07-01T01:19:52Z,42.805,6.029,13.3043,4.60086,2470.53,2022-7-01T03:21:37Z
2022-07-01T01:22:55Z,42.805,6.029,13.3047,4.60117,2470.52,2022-7-01T03:24:40Z
2022-07-01T01:25:58Z,42.805,6.029,13.3051,4.60091,2470.507,2022-7-01T03:27:43Z
2022-07-01T01:29:02Z,42.805,6.029,13.3051,4.60075,2470.53,2022-7-01T03:30:46Z
2022-07-01T01:32:05Z,42.805,6.029,13.3043,4.60092,2470.52,2022-7-01T03:33:50Z
2022-07-01T01:35:08Z,42.805,6.029,13.3039,4.60093,2470.507,2022-7-01T03:36:53Z
2022-07-01T01:38:11Z,42.805,6.029,13.3040,4.60116,2470.544,2022-7-01T03:39:56Z
2022-07-01T01:41:14Z,42.805,6.029,13.3048,4.60112,2470.544,2022-7-01T03:42:59Z
2022-07-01T01:44:17Z,42.805,6.029,13.3044,4.60109,2470.53,2022-7-01T03:46:02Z
2022-07-01T01:47:20Z,42.805,6.029,13.3045,4.60095,2470.53,2022-7-01T03:49:05Z
2022-07-01T01:50:23Z,42.805,6.029,13.3046,4.60064,2470.52,2022-7-01T03:52:08Z
2022-07-01T01:53:26Z,42.805,6.029,13.3039,4.60072,2470.544,2022-7-01T03:55:11Z
2022-07-01T01:56:30Z,42.805,6.029,13.3046,4.60087,2470.544,2022-7-01T03:58:15Z
2022-07-01T01:59:33Z,42.805,6.029,13.3045,4.60057,2470.52,2022-7-01T04:01:18Z
2022-07-01T02:02:36Z,42.805,6.029,13.3048,4.60094,2470.52,2022-7-01T04:04:21Z
2022-07-01T02:05:39Z,42.805,6.029,13.3035,4.60084,2470.483,2022-7-01T04:07:24Z
2022-07-01T02:08:42Z,42.805,6.029,13.3043,4.60081,2470.507,2022-7-01T04:10:27Z
2022-07-01T02:11:45Z,42.805,6.029,13.3053,4.60092,2470.544,2022-7-01T04:13:30Z
2022-07-01T02:14:48Z,42.805,6.029,13.3056,4.60083,2470.507,2022-7-01T04:16:33Z
2022-07-01T02:17:51Z,42.805,6.029,13.3048,4.60089,2470.52,2022-7-01T04:19:36Z
2022-07-01T02:20:55Z,42.805,6.029,13.3044,4.60097,2470.544,2022-7-01T04:22:39Z
2022-07-01T02:23:58Z,42.805,6.029,13.3041,4.60073,2470.52,2022-7-01T04:25:43Z
2022-07-01T02:27:01Z,42.805,6.029,13.3037,4.60079,2470.497,2022-7-01T04:28:46Z
2022-07-01T02:30:04Z,42.805,6.029,13.3040,4.60097,2470.544,2022-7-01T04:31:49Z
2022-07-01T02:33:07Z,42.805,6.029,13.3033,4.60113,2470.53,2022-7-01T04:34:52Z
2022-07-01T02:36:10Z,42.805,6.029,13.3037,4.60125,2470.507,2022-7-01T04:37:55Z
2022-07-01T02:39:13Z,42.805,6.029,13.3027,4.60130,2470.507,2022-7-01T04:40:58Z
2022-07-01T02:42:16Z,42.805,6.029,13.3031,4.60094,2470.52,2022-7-01T04:44:01Z
2022-07-01T02:45:19Z,42.805,6.029,13.3029,4.60129,2470.437,2022-7-01T04:47:04Z
2022-07-01T02:48:23Z,42.805,6.029,13.3027,4.60125,2470.553,2022-7-01T04:50:08Z
2022-07-01T02:51:26Z,42.805,6.029,13.3028,4.60104,2470.591,2022-7-01T04:53:11Z
2022-07-01T02:54:29Z,42.805,6.029,13.3041,4.60135,2470.53,2022-7-01T04:56:14Z
2022-07-01T02:57:32Z,42.805,6.029,13.3031,4.60122,2470.483,2022-7-01T04:59:17Z
2022-07-01T03:00:35Z,42.805,6.029,13.3033,4.60106,2470.53,2022-7-01T05:02:20Z
2022-07-01T03:03:38Z,42.805,6.029,13.3029,4.60140,2470.52,2022-7-01T05:05:23Z
2022-07-01T03:06:41Z,42.805,6.029,13.3029,4.60105,2470.507,2022-7-01T05:08:26Z
2022-07-01T03:09:44Z,42.805,6.029,13.3027,4.60119,2470.52,2022-7-01T05:11:29Z
2022-07-01T03:12:48Z,42.805,6.029,13.3029,4.60110,2470.46,2022-7-01T05:14:32Z
2022-07-01T03:15:51Z,42.805,6.029,13.3035,4.60125,2470.46,2022-7-01T05:17:36Z
2022-07-01T03:18:54Z,42.805,6.029,13.3039,4.60137,2470.423,2022-7-01T05:20:39Z
2022-07-01T03:21:57Z,42.805,6.029,13.3043,4.60131,2470.46,2022-7-01T05:23:42Z
2022-07-01T03:25:00Z,42.805,6.029,13.3038,4.60130,2470.497,2022-7-01T05:26:45Z
2022-07-01T03:28:03Z,42.805,6.029,13.3035,4.60098,2470.483,2022-7-01T05:29:48Z
2022-07-01T03:31:06Z,42.805,6.029,13.3029,4.60099,2470.46,2022-7-01T05:32:51Z
2022-07-01T03:34:09Z,42.805,6.029,13.3034,4.60114,2470.474,2022-7-01T05:35:54Z
2022-07-01T03:37:12Z,42.805,6.029,13.3041,4.60116,2470.483,2022-7-01T05:38:57Z
2022-07-01T03:40:16Z,42.805,6.029,13.3042,4.60117,2470.483,2022-7-01T05:42:01Z
2022-07-01T03:43:19Z,42.805,6.029,13.3048,4.60114,2470.46,2022-7-01T05:45:04Z
2022-07-01T03:46:22Z,42.805,6.029,13.3035,4.60134,2470.437,2022-7-01T05:48:07Z
2022-07-01T03:49:25Z,42.805,6.029,13.3041,4.60142,2470.45,2022-7-01T05:51:10Z
2022-07-01T03:52:28Z,42.805,6.029,13.3034,4.60146,2470.46,2022-7-01T05:54:13Z
2022-07-01T03:55:31Z,42.805,6.029,13.3025,4.60114,2470.483,2022-7-01T05:57:16Z
2022-07-01T03:58:34Z,42.805,6.029,13.3031,4.60111,2470.45,2022-7-01T06:00:19Z
2022-07-01T04:01:37Z,42.805,6.029,13.3032,4.60129,2470.474,2022-7-01T06:03:22Z
2022-07-01T04:04:41Z,42.805,6.029,13.3046,4.60115,2470.45,2022-7-01T06:06:25Z
2022-07-01T04:07:44Z,42.805,6.029,13.3031,4.60114,2470.437,2022-7-01T06:09:29Z
2022-07-01T04:10:47Z,42.805,6.029,13.3039,4.60160,2470.507,2022-7-01T06:12:32Z
2022-07-01T04:13:50Z,42.805,6.029,13.3033,4.60116,2470.474,2022-7-01T06:15:35Z
2022-07-01T04:16:53Z,42.805,6.029,13.3035,4.60097,2470.45,2022-7-01T06:18:38Z
2022-07-01T04:19:56Z,42.805,6.029,13.3031,4.60114,2470.437,2022-7-01T06:21:41Z
2022-07-01T04:22:59Z,42.805,6.029,13.3024,4.60125,2470.46,2022-7-01T06:24:44Z
2022-07-01T04:26:02Z,42.805,6.029,13.3027,4.60121,2470.437,2022-7-01T06:27:47Z
2022-07-01T04:29:05Z,42.805,6.029,13.3046,4.60146,2470.45,2022-7-01T06:30:50Z
2022-07-01T04:32:09Z,42.805,6.029,13.3047,4.60137,2470.507,2022-7-01T06:33:54Z
2022-07-01T04:35:12Z,42.805,6.029,13.3044,4.60144,2470.507,2022-7-01T06:36:57Z
2022-07-01T04:38:15Z,42.805,6.029,13.3039,4.60121,2470.427,2022-7-01T06:40:00Z
2022-07-01T04:41:18Z,42.805,6.029,13.3034,4.60125,2470.413,2022-7-01T06:43:03Z
2022-07-01T04:44:21Z,42.805,6.029,13.3039,4.60111,2470.413,2022-7-01T06:46:06Z
2022-07-01T04:47:24Z,42.805,6.029,13.3051,4.60134,2470.437,2022-7-01T06:49:09Z
2022-07-01T04:50:27Z,42.805,6.029,13.3029,4.60129,2470.474,2022-7-01T06:52:12Z
2022-07-01T04:53:30Z,42.805,6.029,13.3034,4.60119,2470.46,2022-7-01T06:55:15Z
2022-07-01T04:56:34Z,42.805,6.029,13.3029,4.60125,2470.46,2022-7-01T06:58:18Z
2022-07-01T04:59:37Z,42.805,6.029,13.3031,4.60136,2470.483,2022-7-01T07:01:22Z
2022-07-01T05:02:40Z,42.805,6.029,13.3029,4.60137,2470.46,2022-7-01T07:04:25Z
2022-07-01T05:05:43Z,42.805,6.029,13.3023,4.60132,2470.497,2022-7-01T07:07:28Z
2022-07-01T05:08:46Z,42.805,6.029,13.3042,4.60097,2470.46,2022-7-01T07:10:31Z
2022-07-01T05:11:49Z,42.805,6.029,13.3036,4.60129,2470.497,2022-7-01T07:13:34Z
2022-07-01T05:14:52Z,42.805,6.029,13.3032,4.60103,2470.497,2022-7-01T07:16:37Z
2022-07-01T05:17:55Z,42.805,6.029,13.3032,4.60105,2470.474,2022-7-01T07:19:40Z
2022-07-01T05:20:58Z,42.805,6.029,13.3059,4.60104,2470.497,2022-7-01T07:22:43Z
2022-07-01T05:24:02Z,42.805,6.029,13.3046,4.60107,2470.497,2022-7-01T07:25:47Z
2022-07-01T05:27:05Z,42.805,6.029,13.3019,4.60104,2470.52,2022-7-01T07:28:50Z
2022-07-01T05:30:08Z,42.805,6.029,13.3034,4.60127,2470.52,2022-7-01T07:31:53Z
2022-07-01T05:33:11Z,42.805,6.029,13.3033,4.60102,2470.544,2022-7-01T07:34:56Z
2022-07-01T05:36:14Z,42.805,6.029,13.3039,4.60112,2470.53,2022-7-01T07:37:59Z
2022-07-01T05:39:17Z,42.805,6.029,13.3018,4.60127,2470.46,2022-7-01T07:41:02Z
2022-07-01T05:42:20Z,42.805,6.029,13.3034,4.60104,2470.53,2022-7-01T07:44:05Z
2022-07-01T05:45:23Z,42.805,6.029,13.3034,4.60116,2470.52,2022-7-01T07:47:08Z
2022-07-01T05:48:27Z,42.805,6.029,13.3039,4.60091,2470.483,2022-7-01T07:50:11Z
2022-07-01T05:51:30Z,42.805,6.029,13.3037,4.60137,2470.52,2022-7-01T07:53:15Z
2022-07-01T05:54:33Z,42.805,6.029,13.3040,4.60137,2470.497,2022-7-01T07:56:18Z
2022-07-01T05:57:36Z,42.805,6.029,13.3043,4.60117,2470.483,2022-7-01T07:59:21Z
2022-07-01T06:00:39Z,42.805,6.029,13.3051,4.60079,2470.46,2022-7-01T08:02:24Z
2022-07-01T06:03:42Z,42.805,6.029,13.3043,4.60111,2470.507,2022-7-01T08:05:27Z
2022-07-01T06:06:45Z,42.805,6.029,13.3050,4.60110,2470.474,2022-7-01T08:08:30Z
2022-07-01T06:09:48Z,42.805,6.029,13.3050,4.60110,2470.483,2022-7-01T08:11:33Z
2022-07-01T06:12:51Z,42.805,6.029,13.3046,4.60093,2470.497,2022-7-01T08:14:36Z
2022-07-01T06:15:55Z,42.805,6.029,13.3041,4.60087,2470.46,2022-7-01T08:17:40Z
2022-07-01T06:18:58Z,42.805,6.029,13.3043,4.60076,2470.483,2022-7-01T08:20:43Z
2022-07-01T06:22:01Z,42.805,6.029,13.3042,4.60116,2470.474,2022-7-01T08:23:46Z
2022-07-01T06:25:04Z,42.805,6.029,13.3036,4.60119,2470.483,2022-7-01T08:26:49Z
2022-07-01T06:28:07Z,42.805,6.029,13.3039,4.60126,2470.497,2022-7-01T08:29:52Z
2022-07-01T06:31:10Z,42.805,6.029,13.3031,4.60092,2470.497,2022-7-01T08:32:55Z
2022-07-01T06:34:13Z,42.805,6.029,13.3029,4.60117,2470.483,2022-7-01T08:35:58Z
2022-07-01T06:37:16Z,42.805,6.029,13.3034,4.60119,2470.507,2022-7-01T08:39:01Z
2022-07-01T06:40:20Z,42.805,6.029,13.3027,4.60085,2470.46,2022-7-01T08:42:04Z
2022-07-01T06:43:23Z,42.805,6.029,13.3035,4.60096,2470.474,2022-7-01T08:45:08Z
2022-07-01T06:46:26Z,42.805,6.029,13.3022,4.60119,2470.483,2022-7-01T08:48:11Z
2022-07-01T06:49:29Z,42.805,6.029,13.3023,4.60112,2470.507,2022-7-01T08:51:14Z
2022-07-01T06:52:32Z,42.805,6.029,13.3024,4.60132,2470.483,2022-7-01T08:54:17Z
2022-07-01T06:55:35Z,42.805,6.029,13.3041,4.60117,2470.507,2022-7-01T08:57:20Z
2022-07-01T06:58:38Z,42.805,6.029,13.3032,4.60119,2470.497,2022-7-01T09:00:23Z
2022-07-01T07:01:41Z,42.805,6.029,13.3030,4.60128,2470.45,2022-7-01T09:03:26Z
2022-07-01T07:04:44Z,42.805,6.029,13.3034,4.60126,2470.46,2022-7-01T09:06:29Z
2022-07-01T07:07:48Z,42.805,6.029,13.3036,4.60120,2470.553,2022-7-01T09:09:32Z
2022-07-01T07:10:51Z,42.805,6.029,13.3020,4.60108,2470.52,2022-7-01T09:12:36Z
2022-07-01T07:13:54Z,42.805,6.029,13.3031,4.60122,2470.507,2022-7-01T09:15:39Z
2022-07-01T07:16:57Z,42.805,6.029,13.3026,4.60113,2470.45,2022-7-01T09:18:42Z
2022-07-01T07:20:00Z,42.805,6.029,13.3054,4.60110,2470.483,2022-7-01T09:21:45Z
2022-07-01T07:23:03Z,42.805,6.029,13.3038,4.60110,2470.474,2022-7-01T09:24:48Z
2022-07-01T07:26:06Z,42.805,6.029,13.3049,4.60138,2470.497,2022-7-01T09:27:51Z
2022-07-01T07:29:09Z,42.805,6.029,13.3035,4.60127,2470.497,2022-7-01T09:30:54Z
2022-07-01T07:32:12Z,42.805,6.029,13.3025,4.60125,2470.483,2022-7-01T09:33:57Z
2022-07-01T07:35:16Z,42.805,6.029,13.3041,4.60114,2470.52,2022-7-01T09:37:01Z
2022-07-01T07:38:19Z,42.805,6.029,13.3043,4.60129,2470.52,2022-7-01T09:40:04Z
2022-07-01T07:41:22Z,42.805,6.029,13.3031,4.60116,2470.46,2022-7-01T09:43:07Z
2022-07-01T07:44:25Z,42.805,6.029,13.3029,4.60105,2470.507,2022-7-01T09:46:10Z
2022-07-01T07:47:28Z,42.805,6.029,13.3028,4.60121,2470.497,2022-7-01T09:49:13Z
2022-07-01T07:50:31Z,42.805,6.029,13.3027,4.60106,2470.483,2022-7-01T09:52:16Z
2022-07-01T07:53:34Z,42.805,6.029,13.3031,4.60097,2470.507,2022-7-01T09:55:19Z
2022-07-01T07:56:37Z,42.805,6.029,13.3034,4.60112,2470.474,2022-7-01T09:58:22Z
2022-07-01T07:59:41Z,42.805,6.029,13.3029,4.60125,2470.52,2022-7-01T10:01:25Z
2022-07-01T08:02:44Z,42.805,6.029,13.3022,4.60087,2470.497,2022-7-01T10:04:29Z
2022-07-01T08:05:47Z,42.805,6.029,13.3044,4.60132,2470.507,2022-7-01T10:07:32Z
2022-07-01T08:08:50Z,42.805,6.029,13.3067,4.60126,2470.483,2022-7-01T10:10:35Z
2022-07-01T08:11:53Z,42.805,6.029,13.3029,4.60095,2470.483,2022-7-01T10:13:38Z
2022-07-01T08:14:56Z,42.805,6.029,13.3033,4.60077,2470.53,2022-7-01T10:16:41Z
2022-07-01T08:17:59Z,42.805,6.029,13.3018,4.60101,2470.497,2022-7-01T10:19:44Z
2022-07-01T08:21:02Z,42.805,6.029,13.3034,4.60115,2470.507,2022-7-01T10:22:47Z
2022-07-01T08:24:06Z,42.805,6.029,13.3047,4.60126,2470.483,2022-7-01T10:25:50Z
2022-07-01T08:27:09Z,42.805,6.029,13.3031,4.60156,2470.52,2022-7-01T10:28:54Z
2022-07-01T08:30:12Z,42.805,6.029,13.3041,4.60080,2470.52,2022-7-01T10:31:57Z
2022-07-01T08:33:15Z,42.805,6.029,13.3036,4.60124,2470.52,2022-7-01T10:35:00Z
2022-07-01T08:36:18Z,42.805,6.029,13.3031,4.60133,2470.507,2022-7-01T10:38:03Z
2022-07-01T08:39:21Z,42.805,6.029,13.3051,4.60146,2470.507,2022-7-01T10:41:06Z
2022-07-01T08:42:24Z,42.805,6.029,13.3032,4.60128,2470.52,2022-7-01T10:44:09Z
2022-07-01T08:45:27Z,42.805,6.029,13.3039,4.60087,2470.53,2022-7-01T10:47:12Z
2022-07-01T08:48:30Z,42.805,6.029,13.3042,4.60092,2470.497,2022-7-01T10:50:15Z
2022-07-01T08:51:34Z,42.805,6.029,13.3030,4.60099,2470.497,2022-7-01T10:53:19Z
2022-07-01T08:54:37Z,42.805,6.029,13.3020,4.60110,2470.53,2022-7-01T10:56:22Z
2022-07-01T08:57:40Z,42.805,6.029,13.3039,4.60125,2470.53,2022-7-01T10:59:25Z
2022-07-01T09:00:43Z,42.805,6.029,13.3037,4.60129,2470.52,2022-7-01T11:02:28Z
2022-07-01T09:03:46Z,42.805,6.029,13.3030,4.60141,2470.52,2022-7-01T11:05:31Z
2022-07-01T09:06:49Z,42.805,6.029,13.3025,4.60127,2470.46,2022-7-01T11:08:34Z
2022-07-01T09:09:52Z,42.805,6.029,13.3044,4.60122,2470.52,2022-7-01T11:11:37Z
2022-07-01T09:12:55Z,42.805,6.029,13.3034,4.60129,2470.52,2022-7-01T11:14:40Z
2022-07-01T09:15:59Z,42.805,6.029,13.3034,4.60116,2470.507,2022-7-01T11:17:44Z
2022-07-01T09:19:02Z,42.805,6.029,13.3041,4.60144,2470.52,2022-7-01T11:20:47Z
2022-07-01T09:22:05Z,42.805,6.029,13.3029,4.60116,2470.483,2022-7-01T11:23:50Z
2022-07-01T09:25:08Z,42.805,6.029,13.3032,4.60126,2470.483,2022-7-01T11:26:53Z
2022-07-01T09:28:11Z,42.805,6.029,13.3047,4.60132,2470.507,2022-7-01T11:29:56Z
2022-07-01T09:31:14Z,42.805,6.029,13.3032,4.60132,2470.52,2022-7-01T11:32:59Z
2022-07-01T09:34:17Z,42.805,6.029,13.3043,4.60108,2470.507,2022-7-01T11:36:02Z
2022-07-01T09:37:20Z,42.805,6.029,13.3027,4.60152,2470.483,2022-7-01T11:39:05Z
2022-07-01T09:40:24Z,42.805,6.029,13.3050,4.60098,2470.497,2022-7-01T11:42:08Z
2022-07-01T09:43:27Z,42.805,6.029,13.3029,4.60109,2470.52,2022-7-01T11:45:12Z
2022-07-01T09:46:30Z,42.805,6.029,13.3038,4.60111,2470.497,2022-7-01T11:48:15Z
2022-07-01T09:49:33Z,42.805,6.029,13.3032,4.60103,2470.507,2022-7-01T11:51:18Z
2022-07-01T09:52:36Z,42.805,6.029,13.3034,4.60126,2470.497,2022-7-01T11:54:21Z
2022-07-01T09:55:39Z,42.805,6.029,13.3022,4.60122,2470.46,2022-7-01T11:57:24Z
2022-07-01T09:58:42Z,42.805,6.029,13.3031,4.60102,2470.483,2022-7-01T12:00:27Z
2022-07-01T10:01:45Z,42.805,6.029,13.3036,4.60103,2470.474,2022-7-01T12:03:30Z
2022-07-01T10:04:49Z,42.805,6.029,13.3036,4.60082,2470.507,2022-7-01T12:06:33Z
2022-07-01T10:07:52Z,42.805,6.029,13.3039,4.60095,2470.483,2022-7-01T12:09:37Z
2022-07-01T10:10:55Z,42.805,6.029,13.3034,4.60110,2470.474,2022-7-01T12:12:40Z
2022-07-01T10:13:58Z,42.805,6.029,13.3026,4.60113,2470.497,2022-7-01T12:15:43Z
2022-07-01T10:17:01Z,42.805,6.029,13.3062,4.60097,2470.483,2022-7-01T12:18:46Z
2022-07-01T10:20:04Z,42.805,6.029,13.3041,4.60127,2470.497,2022-7-01T12:21:49Z
2022-07-01T10:23:07Z,42.805,6.029,13.3034,4.60088,2470.46,2022-7-01T12:24:52Z
2022-07-01T10:26:10Z,42.805,6.029,13.3030,4.60146,2470.483,2022-7-01T12:27:55Z
2022-07-01T10:29:13Z,42.805,6.029,13.3036,4.60095,2470.437,2022-7-01T12:30:58Z
2022-07-01T10:32:17Z,42.805,6.029,13.3051,4.60138,2470.483,2022-7-01T12:34:02Z
2022-07-01T10:35:20Z,42.805,6.029,13.3032,4.60114,2470.474,2022-7-01T12:37:05Z
2022-07-01T10:38:23Z,42.805,6.029,13.3036,4.60111,2470.46,2022-7-01T12:40:08Z
2022-07-01T10:41:26Z,42.805,6.029,13.3057,4.60114,2470.46,2022-7-01T12:43:11Z
2022-07-01T10:44:29Z,42.805,6.029,13.3026,4.60097,2470.46,2022-7-01T12:46:14Z
2022-07-01T10:47:32Z,42.805,6.029,13.3045,4.60128,2470.45,2022-7-01T12:49:17Z
2022-07-01T10:50:35Z,42.805,6.029,13.3027,4.60112,2470.46,2022-7-01T12:52:20Z
2022-07-01T10:53:38Z,42.805,6.029,13.3027,4.60120,2470.474,2022-7-01T12:55:23Z
2022-07-01T10:56:42Z,42.805,6.029,13.3027,4.60110,2470.46,2022-7-01T12:58:27Z
2022-07-01T10:59:45Z,42.805,6.029,13.3031,4.60099,2470.46,2022-7-01T13:01:30Z
2022-07-01T11:02:48Z,42.805,6.029,13.3029,4.60117,2470.45,2022-7-01T13:04:33Z
2022-07-01T11:05:51Z,42.805,6.029,13.3033,4.60117,2470.474,2022-7-01T13:07:36Z
2022-07-01T11:08:54Z,42.805,6.029,13.3025,4.60119,2470.46,2022-7-01T13:10:39Z
2022-07-01T11:11:57Z,42.805,6.029,13.3030,4.60099,2470.46,2022-7-01T13:13:42Z
2022-07-01T11:15:00Z,42.805,6.029,13.3030,4.60127,2470.404,2022-7-01T13:16:45Z
2022-07-01T11:18:03Z,42.805,6.029,13.3039,4.60135,2470.437,2022-7-01T13:19:48Z
2022-07-01T11:21:07Z,42.805,6.029,13.3033,4.60116,2470.474,2022-7-01T13:22:52Z
2022-07-01T11:24:10Z,42.805,6.029,13.3041,4.60135,2470.437,2022-7-01T13:25:55Z
2022-07-01T11:27:13Z,42.805,6.029,13.3039,4.60127,2470.45,2022-7-01T13:28:58Z
2022-07-01T11:30:16Z,42.805,6.029,13.3054,4.60157,2470.437,2022-7-01T13:32:01Z
2022-07-01T11:33:19Z,42.805,6.029,13.3057,4.60125,2470.46,2022-7-01T13:35:04Z
2022-07-01T11:36:22Z,42.805,6.029,13.3049,4.60144,2470.45,2022-7-01T13:38:07Z
2022-07-01T11:39:25Z,42.805,6.029,13.3035,4.60127,2470.427,2022-7-01T13:41:10Z
2022-07-01T11:42:28Z,42.805,6.029,13.3044,4.60110,2470.46,2022-7-01T13:44:13Z
2022-07-01T11:45:32Z,42.805,6.029,13.3033,4.60128,2470.45,2022-7-01T13:47:16Z
2022-07-01T11:48:35Z,42.805,6.029,13.3031,4.60103,2470.413,2022-7-01T13:50:20Z
2022-07-01T11:51:38Z,42.805,6.029,13.3029,4.60117,2470.45,2022-7-01T13:53:23Z
2022-07-01T11:54:41Z,42.805,6.029,13.3026,4.60124,2470.437,2022-7-01T13:56:26Z
2022-07-01T11:57:44Z,42.805,6.029,13.3029,4.60121,2470.437,2022-7-01T13:59:29Z
2022-07-01T12:00:47Z,42.805,6.029,13.3030,4.60144,2470.413,2022-7-01T14:02:32Z
2022-07-01T12:03:50Z,42.805,6.029,13.3034,4.60157,2470.437,2022-7-01T14:05:35Z
2022-07-01T12:06:53Z,42.805,6.029,13.3034,4.60130,2470.45,2022-7-01T14:08:38Z
2022-07-01T12:09:56Z,42.805,6.029,13.3053,4.60110,2470.437,2022-7-01T14:11:41Z
2022-07-01T12:13:00Z,42.805,6.029,13.3038,4.60121,2470.45,2022-7-01T14:14:45Z
2022-07-01T12:16:03Z,42.805,6.029,13.3039,4.60106,2470.437,2022-7-01T14:17:48Z
2022-07-01T12:19:06Z,42.805,6.029,13.3039,4.60075,2470.45,2022-7-01T14:20:51Z
2022-07-01T12:22:09Z,42.805,6.029,13.3042,4.60111,2470.413,2022-7-01T14:23:54Z
2022-07-01T12:25:12Z,42.805,6.029,13.3041,4.60120,2470.413,2022-7-01T14:26:57Z
2022-07-01T12:28:15Z,42.805,6.029,13.3052,4.60114,2470.437,2022-7-01T14:30:00Z
2022-07-01T12:31:18Z,42.805,6.029,13.3050,4.60093,2470.413,2022-7-01T14:33:03Z
2022-07-01T12:34:21Z,42.805,6.029,13.3049,4.60114,2470.413,2022-7-01T14:36:06Z
2022-07-01T12:37:25Z,42.805,6.029,13.3050,4.60076,2470.39,2022-7-01T14:39:10Z
2022-07-01T12:40:28Z,42.805,6.029,13.3032,4.60098,2470.45,2022-7-01T14:42:13Z
2022-07-01T12:43:31Z,42.805,6.029,13.3032,4.60092,2470.483,2022-7-01T14:45:16Z
2022-07-01T12:46:34Z,42.805,6.029,13.3037,4.60108,2470.437,2022-7-01T14:48:19Z
2022-07-01T12:49:37Z,42.805,6.029,13.3027,4.60099,2470.46,2022-7-01T14:51:22Z
2022-07-01T12:52:40Z,42.805,6.029,13.3041,4.60160,2470.427,2022-7-01T14:54:25Z
2022-07-01T12:55:43Z,42.805,6.029,13.3041,4.60110,2470.427,2022-7-01T14:57:28Z
2022-07-01T12:58:46Z,42.805,6.029,13.3053,4.60132,2470.39,2022-7-01T15:00:31Z
2022-07-01T13:01:50Z,42.805,6.029,13.3047,4.60143,2470.45,2022-7-01T15:03:35Z
2022-07-01T13:04:53Z,42.805,6.029,13.3047,4.60082,2470.404,2022-7-01T15:06:38Z
2022-07-01T13:07:56Z,42.805,6.029,13.3042,4.60092,2470.437,2022-7-01T15:09:41Z
2022-07-01T13:10:59Z,42.805,6.029,13.3024,4.60087,2470.427,2022-7-01T15:12:44Z
2022-07-01T13:14:02Z,42.805,6.029,13.3041,4.60108,2470.427,2022-7-01T15:15:47Z
2022-07-01T13:17:05Z,42.805,6.029,13.3028,4.60144,2470.413,2022-7-01T15:18:50Z
2022-07-01T13:20:08Z,42.805,6.029,13.3031,4.60128,2470.413,2022-7-01T15:21:53Z
2022-07-01T13:23:11Z,42.805,6.029,13.3034,4.60099,2470.427,2022-7-01T15:24:56Z
2022-07-01T13:26:15Z,42.805,6.029,13.3029,4.60097,2470.427,2022-7-01T15:27:59Z
2022-07-01T13:29:18Z,42.805,6.029,13.3029,4.60123,2470.45,2022-7-01T15:31:03Z
2022-07-01T13:32:21Z,42.805,6.029,13.3025,4.60111,2470.437,2022-7-01T15:34:06Z
2022-07-01T13:35:24Z,42.805,6.029,13.3026,4.60107,2470.39,2022-7-01T15:37:09Z
2022-07-01T13:38:27Z,42.805,6.029,13.3039,4.60123,2470.437,2022-7-01T15:40:12Z
2022-07-01T13:41:30Z,42.805,6.029,13.3044,4.60113,2470.437,2022-7-01T15:43:15Z
2022-07-01T13:44:33Z,42.805,6.029,13.3051,4.60092,2470.427,2022-7-01T15:46:18Z
2022-07-01T13:47:36Z,42.805,6.029,13.3044,4.60088,2470.404,2022-7-01T15:49:21Z
2022-07-01T13:50:39Z,42.805,6.029,13.3042,4.60065,2470.404,2022-7-01T15:52:24Z
2022-07-01T13:53:43Z,42.805,6.029,13.3036,4.60092,2470.427,2022-7-01T15:55:28Z
2022-07-01T13:56:46Z,42.805,6.029,13.3032,4.60084,2470.413,2022-7-01T15:58:31Z
2022-07-01T13:59:49Z,42.805,6.029,13.3041,4.60104,2470.413,2022-7-01T16:01:34Z
2022-07-01T14:02:52Z,42.805,6.029,13.3043,4.60087,2470.437,2022-7-01T16:04:37Z
2022-07-01T14:05:55Z,42.805,6.029,13.3044,4.60099,2470.45,2022-7-01T16:07:40Z
2022-07-01T14:08:58Z,42.805,6.029,13.3037,4.60098,2470.483,2022-7-01T16:10:43Z
2022-07-01T14:12:01Z,42.805,6.029,13.3050,4.60092,2470.404,2022-7-01T16:13:46Z
2022-07-01T14:15:04Z,42.805,6.029,13.3047,4.60073,2470.427,2022-7-01T16:16:49Z
2022-07-01T14:18:08Z,42.805,6.029,13.3048,4.60117,2470.413,2022-7-01T16:19:53Z
2022-07-01T14:21:11Z,42.805,6.029,13.3038,4.60088,2470.427,2022-7-01T16:22:56Z
2022-07-01T14:24:14Z,42.805,6.029,13.3043,4.60101,2470.39,2022-7-01T16:25:59Z
2022-07-01T14:27:17Z,42.805,6.029,13.3041,4.60103,2470.413,2022-7-01T16:29:02Z
2022-07-01T14:30:20Z,42.805,6.029,13.3031,4.60119,2470.437,2022-7-01T16:32:05Z
2022-07-01T14:33:23Z,42.805,6.029,13.3041,4.60117,2470.437,2022-7-01T16:35:08Z
2022-07-01T14:36:26Z,42.805,6.029,13.3037,4.60073,2470.404,2022-7-01T16:38:11Z
2022-07-01T14:39:29Z,42.805,6.029,13.3056,4.60064,2470.474,2022-7-01T16:41:14Z
2022-07-01T14:42:33Z,42.805,6.029,13.3044,4.60074,2470.413,2022-7-01T16:44:18Z
2022-07-01T14:45:36Z,42.805,6.029,13.3042,4.60064,2470.427,2022-7-01T16:47:21Z
2022-07-01T14:48:39Z,42.805,6.029,13.3043,4.60084,2470.45,2022-7-01T16:50:24Z
2022-07-01T14:51:42Z,42.805,6.029,13.3041,4.60070,2470.413,2022-7-01T16:53:27Z
2022-07-01T14:54:45Z,42.805,6.029,13.3047,4.60081,2470.437,2022-7-01T16:56:30Z
2022-07-01T14:57:48Z,42.805,6.029,13.3035,4.60089,2470.413,2022-7-01T16:59:33Z
2022-07-01T15:00:51Z,42.805,6.029,13.3039,4.60062,2470.413,2022-7-01T17:02:36Z
2022-07-01T15:03:54Z,42.805,6.029,13.3046,4.60094,2470.437,2022-7-01T17:05:39Z
2022-07-01T15:06:57Z,42.805,6.029,13.3062,4.60095,2470.46,2022-7-01T17:08:42Z
2022-07-01T15:10:01Z,42.805,6.029,13.3048,4.60086,2470.39,2022-7-01T17:11:46Z
2022-07-01T15:13:04Z,42.805,6.029,13.3043,4.60079,2470.45,2022-7-01T17:14:49Z